Weather History for Rawlins, WY

Change the Weather History Date:

Monday, May 20, 2013

  Actual Average Record
Temperature  
Mean Temperature 46 °F 51 °F  
Max Temperature 56 °F 65 °F 86 °F (1954)
Min Temperature 36 °F 36 °F 20 °F (2001)
Degree Days  
Heating Degree Days 19 14  
Month to date heating degree days 300 345  
Since 1 July heating degree days 7779 8064  
Cooling Degree Days 0 0  
Month to date cooling degree days 1 0  
Year to date cooling degree days 1 0  
Moisture  
Dew Point 35 °F    
Average Humidity 67    
Maximum Humidity 93    
Minimum Humidity 41    
Precipitation  
Precipitation 0.03 in 0.04 in 0.22 in (1982)
Month to date precipitation 0.42 0.89  
Year to date precipitation 2.01 3.40  
Sea Level Pressure  
Sea Level Pressure 29.98 in    
Wind  
Wind Speed 17 mph (NW)    
Max Wind Speed 35 mph    
Max Gust Speed 43 mph    
Visibility 10 miles    
Events Rain    
T = Trace of Precipitation, MM = Missing Value Source: NWS Daily Summary

Daily Weather History Graph

Daily Weather History Graph

Search for Another Location

Airport:

Trip Planner

Search our weather history database for the weather conditions in past years. The results will help you decide how hot, cold, wet, or windy it might be!

Date:

Astronomy

May. 20, 2013 Rise Set
Actual Time 5:44 AM MDT 8:27 PM MDT
Civil Twilight 5:11 AM MDT 8:59 PM MDT
Nautical Twilight 4:31 AM MDT 9:40 PM MDT
Astronomical Twilight 3:44 AM MDT 10:27 PM MDT
Moon 3:34 PM MDT (5/20) 2:44 AM MDT (5/20)
Length of Visible Light 15h 48m
Length of Day
14h 43m
Waxing Gibbous, 75% of the Moon is Illuminated
May 20
Waxing Gibbous
May 24
Full
May 31
Last Quarter
Jun 8
New
Jun 16
First Quarter

Hourly Weather History & Observations

Time (MDT) Temp. Windchill Dew Point Humidity Pressure Visibility Wind Dir Wind Speed Gust Speed Precip Events Conditions
12:53 AM 37.9 °F 29.2 °F 36.0 °F 93% 29.89 in 10.0 mi NW 15.0 mph - 0.03 in Rain Light Rain
2:53 AM 37.9 °F 30.9 °F 36.0 °F 93% 29.89 in 10.0 mi WNW 10.4 mph - 0.01 in   Overcast
3:51 AM 39.2 °F 32.5 °F 35.6 °F 87% 30.02 in 10.0 mi West 10.4 mph - N/A   Overcast
3:53 AM 39.0 °F 32.3 °F 36.0 °F 89% 29.89 in 10.0 mi West 10.4 mph - N/A   Overcast
4:22 AM 37.4 °F 29.3 °F 35.6 °F 93% 30.01 in 10.0 mi WSW 12.7 mph - 0.00 in Rain Light Rain
4:53 AM 37.0 °F 30.4 °F 36.0 °F 96% 29.91 in 10.0 mi WSW 9.2 mph - 0.00 in Rain Light Rain
5:38 AM 39.2 °F 33.6 °F 37.4 °F 93% 30.02 in 10.0 mi WNW 8.1 mph - 0.01 in Rain Light Rain
5:53 AM 41.0 °F 33.9 °F 39.0 °F 93% 29.93 in 10.0 mi NW 12.7 mph 20.7 mph 0.01 in Rain Light Rain
6:51 AM 41.0 °F 33.1 °F 39.2 °F 93% 30.04 in 10.0 mi NW 15.0 mph 23.0 mph 0.00 in   Overcast
6:53 AM 41.0 °F 32.2 °F 39.0 °F 93% 29.95 in 10.0 mi NW 18.4 mph 23.0 mph 0.00 in   Overcast
8:53 AM 43.0 °F 34.2 °F 39.0 °F 86% 29.95 in 10.0 mi NW 20.7 mph 28.8 mph 0.00 in   Overcast
9:12 AM 44.6 °F 35.9 °F 37.4 °F 76% 30.06 in 10.0 mi NW 23.0 mph 31.1 mph N/A   Overcast
9:53 AM 45.0 °F 36.6 °F 37.9 °F 76% 29.96 in 10.0 mi NW 21.9 mph 29.9 mph N/A   Overcast
10:12 AM 44.6 °F 36.4 °F 37.4 °F 76% 30.06 in 10.0 mi NNW 20.7 mph 32.2 mph N/A   Overcast
10:53 AM 46.9 °F - 37.9 °F 71% 29.96 in 10.0 mi NW 27.6 mph 38.0 mph N/A   Overcast
12:53 PM 52.0 °F - 35.1 °F 53% 29.97 in 10.0 mi NNW 23.0 mph 33.4 mph N/A   Mostly Cloudy
1:53 PM 50.0 °F - 33.1 °F 52% 29.98 in 10.0 mi North 26.5 mph 34.5 mph 0.00 in   Overcast
2:53 PM 55.0 °F - 32.0 °F 42% 29.96 in 10.0 mi NNW 27.6 mph 39.1 mph N/A   Mostly Cloudy
3:53 PM 54.0 °F - 30.0 °F 40% 29.96 in 10.0 mi NNW 24.2 mph 40.3 mph N/A   Partly Cloudy
4:53 PM 44.1 °F 35.7 °F 37.0 °F 76% 30.04 in 10.0 mi North 20.7 mph 40.3 mph 0.00 in Rain Light Rain
5:53 PM 51.1 °F - 32.0 °F 48% 29.97 in 10.0 mi NNW 19.6 mph 26.5 mph 0.00 in   Partly Cloudy
6:53 PM 51.1 °F - 30.9 °F 46% 29.98 in 10.0 mi NNW 17.3 mph 28.8 mph N/A   Partly Cloudy
8:53 PM 45.0 °F 38.2 °F 30.0 °F 56% 30.01 in 10.0 mi NNW 15.0 mph - N/A   Overcast
9:53 PM 43.0 °F 37.2 °F 30.9 °F 62% 30.04 in 10.0 mi NW 10.4 mph - N/A   Clear
10:53 PM 39.0 °F 34.8 °F 32.0 °F 76% 30.06 in 10.0 mi WNW 5.8 mph - N/A   Clear
11:53 PM 37.0 °F 34.5 °F 32.0 °F 82% 30.07 in 10.0 mi North 3.5 mph - N/A   Clear